LiveATC.Net - Listen to live air traffic control over the Internet!


ICAO: RJSF  IATA: FKS   Airport: Fukushima Airport
City: Sukagawa   State/Province: Fukushima
Country: Japan   Continent: Asia
RJSF METAR Weather: RJSF 292300Z 30007KT 270V330 9999 FEW030 10/M03 Q1012
RJSF Flight Activity (FlightAware)
RJSF Webcam: (Airport Webcams)
RJSF RDO
Feed Status: UP   Listeners: 1
Listen right in your browser - requires Flash (in browser, requires Flash)
Click here to listen with your own player (launches your MP3 player)
RJSF RDO Audio Archives
FacilityFrequency
Fukushima Radio118.050


NOTICE

Unauthorized use prohibited. See LiveATC.net Terms of Service


Find LiveATC Audio Streams


Airport/ARTCC Code

Frequency
(e.g., 124.400, 128.75)
Site-wide search

Browse LiveATC Feeds
LiveATC Coverage Map
Top 50 LiveATC Feeds
Bad Weather Areas

LiveATC FAQ
Offer a LiveATC Feed
Contact LiveATC.net
Press Inquiries

LiveATC on iPhone
LiveATC on Android

Windows Phone
Windows 8/10

LiveATC Mobile
(Mobile browser)

ATC Audio Archives
Interesting Recordings

LiveATC Forums


Home Page
About LiveATC.net
Make a Donation
LiveATC Store

Terms of Use
Privacy Policy

Canadian Air Freqs

AIRMETs/SIGMETs

FAA Airport Status
Nat'l Airspace Status
Arrival Demand Charts


Server Software By:
Icecast.org
Liquidsoap